When you browse on this site, cookies collect data to enhance your experience and personalize the content and advertising you see.
Visit our Privacy Policy to learn more. By continuing to use the site, you agree to this use of cookies and data.
  • In Hungary
  • List of Countries
  • For 7 days
  • Water Temperature
  • Satellite Maps
  • Weather Map
  • News
  • Weather Widgets
  • user-avatar
    Login

    Hourly Weather Qidu

    Today, 24 April, Wednesday

    Time Temperature Precipitation Wind Pressure Humidity
    00:00 +27°C° 0 mm 1 mps 752 mmHg 86%
    01:00 +27°C° 0 mm 1 mps 752 mmHg 87%
    02:00 +24°C° 0 mm 0 mps 751 mmHg 88%
    03:00 +26°C° 0 mm 1 mps 751 mmHg 88%
    04:00 +26°C° 0 mm 1 mps 751 mmHg 88%
    05:00 +26°C° 0 mm 1 mps 751 mmHg 88%
    06:00 +28°C° 0 mm 1 mps 751 mmHg 82%
    07:00 +29°C° 0 mm 1 mps 752 mmHg 76%
    08:00 +31°C° 0 mm 1 mps 752 mmHg 69%
    09:00 +32°C° 0 mm 1 mps 752 mmHg 64%
    10:00 +35°C° 0 mm 2 mps 752 mmHg 58%
    11:00 +36°C° 0 mm 2 mps 752 mmHg 53%
    12:00 +36°C° 0.5 mm 2 mps 751 mmHg 54%
    13:00 +36°C° 0.5 mm 2 mps 751 mmHg 55%
    14:00 +36°C° 0.5 mm 2 mps 751 mmHg 55%
    15:00 +35°C° 1.7 mm 2 mps 750 mmHg 62%
    16:00 +33°C° 1.7 mm 1 mps 750 mmHg 69%
    17:00 +32°C° 1.7 mm 1 mps 750 mmHg 76%
    18:00 +31°C° 0.1 mm 1 mps 750 mmHg 80%
    19:00 +28°C° 0.1 mm 0 mps 750 mmHg 84%
    20:00 +27°C° 0.1 mm 0 mps 751 mmHg 88%
    21:00 +26°C° 0.7 mm 0 mps 751 mmHg 89%
    22:00 +28°C° 0.7 mm 1 mps 751 mmHg 90%
    23:00 +28°C° 0.7 mm 1 mps 752 mmHg 91%

    Tomorrow, 25 April, Thursday

    Time Temperature Precipitation Wind Pressure Humidity
    00:00 +28°C° 0.3 mm 1 mps 751 mmHg 91%
    01:00 +27°C° 0.3 mm 1 mps 751 mmHg 91%
    02:00 +25°C° 0.3 mm 0 mps 751 mmHg 91%
    03:00 +25°C° 0 mm 0 mps 751 mmHg 91%
    04:00 +25°C° 0 mm 0 mps 750 mmHg 91%
    05:00 +27°C° 0 mm 1 mps 750 mmHg 91%
    06:00 +26°C° 0.3 mm 0 mps 750 mmHg 87%
    07:00 +27°C° 0.3 mm 0 mps 751 mmHg 84%
    08:00 +28°C° 0.3 mm 0 mps 751 mmHg 80%
    09:00 +31°C° 0.6 mm 1 mps 751 mmHg 71%
    10:00 +33°C° 0.6 mm 1 mps 751 mmHg 62%
    11:00 +36°C° 0.6 mm 2 mps 751 mmHg 52%
    12:00 +36°C° 0.2 mm 2 mps 751 mmHg 49%
    13:00 +36°C° 0.2 mm 2 mps 751 mmHg 47%
    14:00 +37°C° 0.2 mm 2 mps 751 mmHg 44%
    15:00 +34°C° 0.3 mm 1 mps 751 mmHg 51%
    16:00 +33°C° 0.3 mm 1 mps 751 mmHg 59%
    17:00 +31°C° 0.3 mm 1 mps 751 mmHg 66%
    18:00 +30°C° 0.7 mm 1 mps 751 mmHg 72%
    19:00 +27°C° 0.7 mm 0 mps 752 mmHg 77%
    20:00 +26°C° 0.7 mm 0 mps 753 mmHg 83%
    21:00 +25°C° 0.2 mm 0 mps 753 mmHg 83%
    22:00 +25°C° 0.2 mm 0 mps 753 mmHg 84%
    23:00 +25°C° 0.2 mm 0 mps 754 mmHg 85%

    Day after tomorrow, 26 April, Friday

    Time Temperature Precipitation Wind Pressure Humidity
    00:00 +24°C° 0 mm 0 mps 754 mmHg 86%
    01:00 +26°C° 0 mm 1 mps 753 mmHg 87%
    02:00 +26°C° 0 mm 1 mps 753 mmHg 88%
    03:00 +25°C° 0 mm 1 mps 753 mmHg 90%
    04:00 +25°C° 0 mm 1 mps 753 mmHg 92%
    05:00 +25°C° 0 mm 1 mps 753 mmHg 94%
    06:00 +25°C° 0 mm 1 mps 754 mmHg 91%
    07:00 +26°C° 0 mm 1 mps 754 mmHg 88%
    08:00 +27°C° 0 mm 2 mps 755 mmHg 85%
    09:00 +27°C° 0.1 mm 2 mps 755 mmHg 85%
    10:00 +27°C° 0.1 mm 2 mps 755 mmHg 84%
    11:00 +27°C° 0.1 mm 2 mps 756 mmHg 83%
    12:00 +27°C° 0.1 mm 2 mps 755 mmHg 84%
    13:00 +26°C° 0.1 mm 2 mps 755 mmHg 84%
    14:00 +26°C° 0.1 mm 2 mps 755 mmHg 84%
    15:00 +25°C° 0.2 mm 2 mps 755 mmHg 86%
    16:00 +25°C° 0.2 mm 2 mps 755 mmHg 88%
    17:00 +24°C° 0.2 mm 2 mps 755 mmHg 90%
    18:00 +24°C° 0 mm 2 mps 756 mmHg 91%
    19:00 +23°C° 0 mm 2 mps 757 mmHg 92%
    20:00 +23°C° 0 mm 2 mps 757 mmHg 93%
    21:00 +21°C° 0 mm 2 mps 757 mmHg 93%
    22:00 +21°C° 0 mm 2 mps 758 mmHg 93%
    23:00 +21°C° 0 mm 2 mps 758 mmHg 93%

    27 April, Saturday

    Time Temperature Precipitation Wind Pressure Humidity
    00:00 +20°C° 0.1 mm 2 mps 758 mmHg 93%
    01:00 +20°C° 0.1 mm 2 mps 758 mmHg 93%
    02:00 +20°C° 0.1 mm 2 mps 757 mmHg 93%
    03:00 +19°C° 0.1 mm 2 mps 757 mmHg 92%
    04:00 +19°C° 0.1 mm 2 mps 757 mmHg 92%
    05:00 +19°C° 0.1 mm 2 mps 757 mmHg 91%
    06:00 +19°C° 0 mm 2 mps 758 mmHg 89%
    07:00 +19°C° 0 mm 2 mps 758 mmHg 86%
    08:00 +20°C° 0 mm 2 mps 759 mmHg 84%
    09:00 +21°C° 0 mm 2 mps 759 mmHg 79%
    10:00 +21°C° 0 mm 2 mps 759 mmHg 73%
    11:00 +23°C° 0 mm 2 mps 759 mmHg 68%
    12:00 +24°C° 0 mm 2 mps 758 mmHg 66%
    13:00 +24°C° 0 mm 2 mps 758 mmHg 63%
    14:00 +25°C° 0 mm 3 mps 757 mmHg 61%
    15:00 +24°C° 0 mm 3 mps 757 mmHg 63%
    16:00 +24°C° 0 mm 3 mps 757 mmHg 65%
    17:00 +23°C° 0 mm 2 mps 756 mmHg 67%
    18:00 +21°C° 0 mm 2 mps 757 mmHg 73%
    19:00 +20°C° 0 mm 2 mps 757 mmHg 78%
    20:00 +19°C° 0 mm 1 mps 757 mmHg 84%
    21:00 +19°C° 0 mm 1 mps 758 mmHg 85%
    22:00 +19°C° 0 mm 1 mps 758 mmHg 86%
    23:00 +16°C° 0 mm 0 mps 758 mmHg 87%

    28 April, Sunday

    Time Temperature Precipitation Wind Pressure Humidity
    00:00 +16°C° 0 mm 0 mps 757 mmHg 87%
    01:00 +16°C° 0 mm 0 mps 757 mmHg 87%
    02:00 +18°C° 0 mm 1 mps 756 mmHg 87%
    03:00 +16°C° 0 mm 0 mps 756 mmHg 87%
    04:00 +16°C° 0 mm 0 mps 756 mmHg 87%
    05:00 +16°C° 0 mm 0 mps 756 mmHg 88%
    06:00 +18°C° 0 mm 0 mps 756 mmHg 82%
    07:00 +20°C° 0 mm 0 mps 756 mmHg 77%
    08:00 +22°C° 0 mm 0 mps 757 mmHg 72%
    09:00 +24°C° 0 mm 0 mps 756 mmHg 67%
    10:00 +28°C° 0 mm 1 mps 756 mmHg 62%
    11:00 +31°C° 0 mm 1 mps 756 mmHg 57%
    12:00 +31°C° 0 mm 1 mps 755 mmHg 57%
    13:00 +31°C° 0 mm 2 mps 754 mmHg 58%
    14:00 +31°C° 0 mm 2 mps 753 mmHg 58%
    15:00 +31°C° 0.1 mm 2 mps 753 mmHg 62%
    16:00 +30°C° 0.1 mm 2 mps 753 mmHg 66%
    17:00 +29°C° 0.1 mm 2 mps 753 mmHg 69%
    18:00 +28°C° 0 mm 2 mps 753 mmHg 77%
    19:00 +26°C° 0 mm 1 mps 753 mmHg 84%
    20:00 +24°C° 0 mm 1 mps 754 mmHg 91%
    21:00 +24°C° 0 mm 1 mps 754 mmHg 92%
    22:00 +22°C° 0 mm 0 mps 754 mmHg 93%
    23:00 +22°C° 0 mm 0 mps 754 mmHg 93%

    29 April, Monday

    Time Temperature Precipitation Wind Pressure Humidity
    00:00 +22°C° 0 mm 0 mps 754 mmHg 93%
    01:00 +22°C° 0 mm 0 mps 753 mmHg 93%
    02:00 +22°C° 0 mm 0 mps 753 mmHg 93%
    03:00 +21°C° 0 mm 0 mps 753 mmHg 93%
    04:00 +21°C° 0 mm 0 mps 753 mmHg 93%
    05:00 +21°C° 0 mm 0 mps 753 mmHg 93%
    06:00 +25°C° 0 mm 1 mps 753 mmHg 85%
    07:00 +27°C° 0 mm 1 mps 753 mmHg 78%
    08:00 +29°C° 0 mm 1 mps 754 mmHg 70%
    09:00 +31°C° 0 mm 1 mps 753 mmHg 63%
    10:00 +34°C° 0 mm 2 mps 753 mmHg 55%
    11:00 +36°C° 0 mm 2 mps 753 mmHg 47%
    12:00 +36°C° 0 mm 2 mps 752 mmHg 45%
    13:00 +37°C° 0 mm 3 mps 752 mmHg 43%
    14:00 +38°C° 0 mm 3 mps 751 mmHg 42%
    15:00 +37°C° 0 mm 3 mps 751 mmHg 45%
    16:00 +36°C° 0 mm 3 mps 750 mmHg 48%
    17:00 +36°C° 0 mm 2 mps 750 mmHg 51%
    18:00 +34°C° 0 mm 2 mps 751 mmHg 61%
    19:00 +30°C° 0 mm 1 mps 751 mmHg 71%
    20:00 +28°C° 0 mm 1 mps 751 mmHg 80%
    21:00 +28°C° 0 mm 1 mps 752 mmHg 82%
    22:00 +27°C° 0 mm 1 mps 752 mmHg 84%
    23:00 +25°C° 0 mm 0 mps 752 mmHg 85%
    Show more